Temp
9 9 10 10 10 11 12 13 14 16 17 18 18 19 20 20 21 21 21 21 21 22 22 22 22 22 22 22 22 22 16 17 20 20 22 23 21 23 23 23 24 24 24 23 24
9 10 10 11 11 12 12 13 15 16 17 17 18 19 20 20 20 20 21 21 21 22 22 22 22 22 22 22 22 20 15 19 19 21 22 22 22 22 22 22 23 24 24 23 24
10 11 11 11 12 12 13 14 15 16 17 17 18 19 20 20 20 20 20 21 21 21 21 21 21 21 21 21 21 19 18 19 21 22 21 21 21 22 22 19 23 22 21 21 22
9 11 12 12 12 13 13 14 15 16 17 17 18 19 19 20 20 19 20 20 20 21 21 20 21 21 20 20 20 20 20 20 21 22 21 20 22 21 21 23 20 19 19 20 21
10 11 12 12 13 13 14 14 15 16 16 17 18 19 19 19 19 19 19 20 20 20 20 20 21 20 19 19 20 19 20 21 21 22 21 20 20 20 22 18 17 18 18 17 17
11 12 12 12 13 13 14 14 15 16 17 17 18 19 19 19 19 19 19 19 20 20 20 20 20 20 19 19 19 19 19 19 21 21 20 19 20 21 20 18 17 17 15 15 15
12 12 12 13 13 14 14 15 15 16 17 17 18 18 19 19 19 19 19 19 20 20 19 19 19 20 19 18 19 19 18 17 21 20 20 19 20 18 15 17 14 13 13 13 13
13 13 13 13 14 14 15 15 16 16 17 17 18 18 19 19 19 19 19 19 19 19 19 19 19 19 19 19 18 17 16 16 19 19 20 21 17 13 15 14 11 12 12 12 12
13 13 14 14 14 15 15 16 16 17 17 17 18 19 18 18 18 19 19 19 19 19 19 18 18 18 18 15 14 13 16 17 17 18 17 18 14 12 12 12 11 11 11 12 12
14 14 15 15 15 15 16 16 17 17 17 18 18 18 18 18 18 18 18 19 19 19 19 19 18 13 12 13 15 16 16 17 16 17 16 11 11 11 11 11 11 11 11 11 11
14 15 15 15 16 16 16 16 17 17 17 17 18 18 18 18 18 18 18 19 19 18 16 17 14 15 16 16 17 17 16 15 14 16 15 11 10 11 11 11 11 11 11 11 11
15 15 15 15 16 16 16 16 17 17 17 17 18 18 18 18 18 18 18 19 18 16 17 14 15 17 16 17 17 17 16 14 14 16 15 11 11 11 11 10 10 11 11 11 11
15 15 16 16 16 16 16 17 17 17 17 18 18 18 18 18 18 18 18 18 17 17 16 15 18 18 18 16 16 15 15 15 15 14 13 11 11 10 11 11 10 10 10 11 11
15 16 16 16 16 16 16 17 17 17 13 17 18 18 18 18 18 18 17 17 17 16 15 16 17 17 17 17 15 15 16 15 14 13 13 14 11 9 10 10 10 10 11 10 10
15 15 15 16 16 16 16 17 17 17 16 17 18 18 18 18 18 17 17 17 15 15 15 16 16 16 16 16 16 15 15 14 14 13 13 12 11 10 8 10 10 10 11 11 10
15 15 15 16 16 16 17 17 17 14 16 16 18 17 17 17 18 17 17 16 15 15 13 14 16 16 16 16 15 13 14 11 9 9 10 11 12 9 8 9 10 10 11 11 11
15 15 15 15 16 16 17 17 14 14 16 16 16 16 15 15 16 14 11 9 10 14 11 11 15 15 15 15 14 12 10 10 13 11 12 12 11 10 9 8 9 10 10 10 10
15 15 15 15 16 16 16 14 16 15 15 15 15 16 15 14 14 12 11 9 9 9 8 11 14 12 13 14 13 12 11 10 14 11 10 9 11 9 8 10 10 10 10 10 10
15 15 15 15 16 16 16 13 13 13 13 14 15 15 14 15 14 11 10 9 9 8 11 10 12 11 13 14 13 13 10 10 10 8 7 8 10 9 8 8 9 9 9 9 9
15 16 15 15 16 16 11 11 11 12 12 13 14 14 13 13 14 12 11 9 10 9 9 9 10 11 11 13 12 13 11 10 7 11 10 8 8 9 7 6 6 7 8 9 9
15 16 15 15 15 16 11 10 12 12 13 13 13 13 12 13 13 11 10 8 9 9 9 8 8 11 10 10 10 9 9 8 7 6 8 6 7 7 6 7 7 7 8 8 8
16 13 16 16 14 8 8 11 12 11 12 11 11 11 12 11 12 10 10 9 9 9 9 7 5 6 9 9 8 10 10 7 5 8 4 1 4 8 6 7 8 7 8 8 8
16 16 16 16 11 6 9 10 10 10 10 10 10 11 11 11 11 10 8 8 9 9 7 7 6 6 10 8 9 9 8 7 3 1 2 3 6 5 6 7 8 8 8 7 7
16 11 15 15 11 8 9 10 10 10 10 10 10 10 10 10 10 9 8 8 8 8 8 8 4 6 7 9 7 7 6 6 5 -1 3 5 8 9 9 6 7 7 7 7 6
15 10 11 9 10 9 10 9 9 10 10 10 9 10 10 9 9 9 8 7 7 8 7 5 5 4 4 5 5 5 6 5 4 3 4 8 5 7 7 7 7 6 6 5 5
15 13 12 10 11 11 8 10 10 9 9 10 9 9 9 9 8 8 7 7 6 6 5 4 4 4 3 4 5 4 5 5 5 5 5 5 5 7 7 7 6 6 5 5 5
14 14 14 8 9 9 9 10 10 9 9 9 9 8 8 8 8 7 7 7 7 5 4 3 3 1 1 2 3 4 5 5 4 4 5 4 6 6 4 5 5 5 4 4 4
Height
1523 1524 1525 1526 1527 1528 1528 1529 1530 1532 1534 1536 1537 1539 1539 1540 1540 1541 1542 1544 1544 1543 1543 1543 1543 1543 1543 1543 1543 1543 1555 1561 1551 1549 1542 1538 1538 1537 1536 1534 1532 1531 1531 1530 1527
1521 1522 1523 1525 1526 1526 1527 1528 1530 1532 1534 1536 1537 1539 1540 1540 1541 1542 1544 1543 1543 1543 1543 1543 1544 1543 1544 1544 1544 1545 1557 1550 1543 1541 1540 1539 1539 1538 1536 1532 1530 1529 1531 1530 1526
1520 1520 1522 1523 1524 1525 1526 1528 1530 1533 1535 1536 1538 1539 1540 1541 1543 1543 1543 1543 1543 1543 1543 1544 1544 1544 1544 1545 1545 1545 1551 1543 1541 1540 1540 1539 1538 1538 1536 1534 1530 1529 1528 1527 1526
1518 1519 1521 1523 1524 1525 1527 1529 1531 1533 1535 1537 1538 1540 1540 1542 1547 1543 1543 1543 1543 1543 1544 1544 1545 1546 1546 1547 1546 1548 1542 1543 1541 1540 1540 1539 1538 1539 1536 1533 1532 1529 1527 1525 1524
1517 1519 1521 1522 1524 1526 1528 1530 1532 1534 1536 1537 1539 1540 1541 1543 1544 1543 1544 1544 1544 1544 1544 1545 1546 1546 1547 1546 1546 1546 1543 1542 1541 1538 1537 1536 1538 1539 1535 1538 1533 1530 1528 1527 1527
1519 1521 1522 1524 1525 1527 1529 1531 1533 1535 1537 1538 1539 1540 1543 1545 1545 1545 1545 1545 1545 1545 1545 1546 1547 1547 1547 1546 1547 1545 1544 1541 1538 1536 1536 1536 1536 1536 1542 1539 1535 1533 1533 1532 1530
1521 1523 1524 1525 1527 1529 1531 1533 1535 1537 1539 1539 1541 1542 1544 1545 1545 1545 1545 1545 1545 1546 1547 1547 1547 1547 1547 1546 1546 1544 1545 1540 1537 1537 1537 1537 1539 1542 1545 1539 1538 1538 1537 1536 1535
1523 1524 1525 1527 1528 1531 1533 1534 1536 1538 1539 1540 1542 1543 1544 1545 1545 1545 1545 1545 1546 1547 1547 1547 1546 1546 1547 1546 1545 1547 1548 1554 1540 1538 1538 1537 1551 1546 1541 1540 1544 1544 1541 1539 1538
1524 1525 1526 1528 1530 1532 1534 1536 1537 1539 1540 1542 1544 1544 1545 1546 1546 1545 1545 1546 1547 1547 1547 1547 1546 1547 1547 1551 1557 1556 1559 1554 1550 1543 1542 1542 1556 1557 1549 1543 1548 1548 1546 1544 1542
1525 1526 1528 1530 1531 1533 1535 1537 1539 1541 1542 1543 1544 1547 1546 1547 1546 1547 1547 1547 1546 1547 1547 1547 1547 1550 1553 1557 1570 1559 1559 1555 1555 1546 1544 1556 1563 1560 1556 1549 1551 1551 1549 1547 1545
1526 1527 1529 1530 1532 1534 1536 1539 1543 1545 1543 1544 1545 1545 1545 1547 1547 1548 1546 1546 1546 1547 1549 1548 1554 1558 1552 1550 1550 1550 1554 1558 1553 1547 1549 1560 1563 1561 1559 1555 1553 1552 1551 1549 1548
1526 1528 1530 1532 1534 1536 1537 1538 1540 1542 1545 1545 1545 1546 1546 1546 1547 1547 1547 1547 1546 1550 1549 1554 1557 1548 1547 1548 1549 1550 1554 1557 1551 1547 1548 1561 1563 1561 1559 1557 1555 1554 1552 1551 1549
1527 1529 1531 1533 1535 1537 1538 1539 1540 1541 1543 1547 1546 1546 1546 1548 1547 1547 1547 1546 1548 1550 1550 1555 1549 1546 1546 1550 1551 1552 1552 1553 1555 1551 1550 1558 1564 1563 1559 1557 1556 1555 1553 1551 1549
1528 1529 1532 1534 1539 1538 1539 1539 1541 1542 1552 1550 1547 1547 1548 1547 1549 1549 1548 1550 1549 1551 1551 1552 1547 1547 1548 1550 1552 1555 1546 1548 1550 1555 1561 1549 1569 1563 1559 1558 1556 1554 1553 1551 1549
1529 1531 1533 1536 1537 1538 1540 1540 1541 1542 1568 1550 1547 1548 1547 1549 1550 1550 1549 1548 1551 1551 1552 1553 1550 1550 1551 1550 1549 1552 1546 1548 1547 1553 1554 1553 1563 1554 1558 1557 1555 1554 1551 1550 1548
1531 1534 1535 1537 1538 1539 1540 1540 1543 1556 1564 1550 1547 1547 1548 1548 1549 1550 1550 1550 1551 1550 1552 1553 1550 1551 1551 1549 1549 1549 1548 1552 1556 1562 1568 1552 1553 1558 1557 1554 1554 1553 1551 1548 1546
1533 1535 1537 1538 1539 1539 1540 1542 1556 1565 1549 1552 1550 1549 1550 1552 1551 1553 1559 1562 1565 1560 1569 1561 1555 1552 1551 1551 1550 1551 1562 1571 1563 1568 1561 1549 1553 1549 1550 1550 1551 1551 1549 1547 1544
1534 1536 1537 1538 1539 1540 1541 1545 1555 1553 1552 1550 1550 1550 1553 1553 1555 1559 1563 1569 1567 1567 1575 1572 1565 1558 1554 1555 1559 1560 1565 1577 1568 1573 1569 1554 1552 1548 1547 1548 1549 1549 1547 1544 1541
1535 1537 1537 1538 1539 1540 1542 1556 1555 1554 1554 1553 1551 1554 1556 1554 1556 1562 1568 1571 1570 1569 1567 1572 1566 1559 1556 1556 1559 1561 1569 1566 1571 1577 1581 1561 1549 1546 1547 1548 1547 1546 1544 1540 1536
1536 1537 1538 1538 1539 1541 1544 1555 1556 1554 1554 1554 1556 1556 1561 1558 1558 1561 1566 1570 1569 1567 1567 1572 1575 1563 1560 1558 1559 1559 1563 1571 1581 1573 1573 1563 1558 1545 1547 1547 1546 1543 1539 1537 1534
1538 1538 1540 1539 1540 1541 1552 1557 1555 1555 1554 1555 1556 1557 1560 1559 1559 1564 1567 1570 1567 1569 1569 1571 1576 1568 1565 1565 1567 1569 1568 1572 1575 1581 1579 1582 1556 1533 1537 1541 1541 1540 1537 1534 1532
1538 1539 1540 1539 1542 1548 1554 1552 1553 1554 1553 1555 1556 1557 1558 1560 1561 1564 1567 1569 1569 1570 1572 1574 1580 1583 1569 1564 1565 1565 1565 1571 1585 1576 1590 1604 1567 1529 1530 1534 1537 1535 1532 1530 1528
1537 1538 1540 1539 1547 1554 1552 1553 1553 1554 1555 1554 1556 1557 1558 1560 1564 1566 1569 1570 1570 1571 1574 1574 1582 1586 1570 1570 1564 1565 1566 1569 1578 1589 1592 1593 1553 1530 1532 1531 1529 1528 1527 1525 1522
1537 1540 1540 1539 1543 1547 1552 1554 1555 1555 1555 1555 1557 1557 1558 1561 1562 1567 1569 1571 1571 1571 1572 1573 1580 1575 1574 1562 1567 1568 1567 1568 1572 1599 1578 1558 1533 1524 1528 1528 1524 1523 1523 1520 1516
1536 1542 1543 1549 1548 1548 1549 1553 1555 1556 1556 1557 1558 1559 1560 1564 1564 1565 1568 1571 1571 1571 1572 1574 1578 1576 1569 1568 1568 1566 1562 1564 1567 1567 1568 1532 1543 1527 1527 1526 1524 1521 1517 1513 1508
1537 1540 1543 1546 1547 1549 1551 1553 1554 1556 1556 1557 1559 1559 1560 1562 1563 1565 1565 1567 1568 1570 1572 1573 1576 1575 1572 1566 1566 1563 1553 1555 1553 1552 1549 1542 1533 1526 1524 1523 1520 1517 1513 1508 1503
1539 1541 1542 1548 1548 1550 1552 1552 1553 1554 1557 1556 1557 1559 1560 1561 1561 1562 1562 1563 1563 1566 1570 1573 1576 1583 1584 1573 1569 1558 1537 1539 1540 1538 1536 1540 1521 1520 1520 1520 1518 1513 1509 1504 1497
Wind_Speed
12 12 13 12 12 10 8 8 11 14 14 13 11 9 7 5 5 6 4 3 1 1 1 1 2 0 1 2 1 2 4 2 4 4 4 6 7 3 10 7 18 5 10 12 16
13 12 12 12 12 9 9 10 13 14 14 12 10 9 7 6 6 4 2 3 3 3 1 1 1 1 1 1 1 3 3 6 4 2 3 8 5 12 7 19 7 19 16 18 13
14 14 11 12 11 10 11 12 14 14 13 10 10 8 7 8 4 1 1 3 3 3 2 2 2 2 1 1 2 2 4 3 2 4 5 6 8 3 8 8 19 20 25 18 13
12 11 11 11 10 11 13 13 13 12 11 9 8 7 7 8 3 1 1 2 2 2 2 1 1 1 1 1 1 3 6 6 5 5 10 5 10 7 8 15 23 12 9 8 5
8 9 10 11 12 13 13 13 12 11 9 8 7 7 9 3 1 2 1 0 0 0 0 2 3 2 1 3 6 2 4 7 12 22 20 13 5 5 13 20 21 21 22 24 21
9 10 11 11 12 12 12 12 12 10 9 7 7 9 5 2 2 2 2 3 1 0 1 1 1 2 2 2 0 5 10 15 12 15 2 3 2 1 19 9 20 23 29 28 29
10 10 10 10 10 11 11 11 10 9 7 6 7 8 4 3 1 1 2 2 2 1 1 2 3 2 1 3 5 6 6 7 3 10 4 1 3 7 25 15 27 31 33 32 31
9 9 9 9 9 9 9 9 8 7 6 6 8 6 3 2 1 1 1 1 1 1 2 3 3 2 1 5 5 4 4 4 3 12 7 4 5 18 23 21 27 29 30 30 30
9 9 9 8 9 9 9 9 8 7 7 8 6 4 4 4 2 3 2 1 1 0 0 2 3 3 1 3 5 6 1 1 9 5 4 6 4 19 23 33 27 26 27 28 29
9 9 9 9 9 9 9 9 9 8 8 6 4 3 3 2 3 5 4 3 1 3 1 1 3 3 4 4 3 3 3 2 4 6 7 8 5 7 18 29 24 23 24 26 26
10 10 10 10 10 10 12 13 10 5 3 3 3 5 4 3 3 3 6 4 2 2 3 3 5 2 6 4 3 2 2 4 5 1 4 7 6 4 11 21 20 19 20 22 22
9 10 10 10 11 12 12 4 5 7 8 6 5 3 1 2 1 6 7 2 3 1 1 5 2 4 3 2 1 1 3 5 4 2 3 6 5 4 6 8 13 14 15 15 16
10 11 12 14 13 9 7 6 10 8 4 2 3 3 3 2 3 7 8 3 3 1 3 3 2 3 2 2 4 3 4 2 5 4 5 8 3 3 1 8 8 8 8 8 10
11 12 14 14 9 8 7 9 9 4 4 3 1 1 2 3 3 6 7 3 3 1 1 2 3 2 2 0 2 3 2 2 4 5 2 3 4 6 4 2 3 4 3 2 3
12 14 14 10 7 6 6 7 7 1 2 1 1 2 2 2 2 3 9 2 2 2 4 2 3 3 2 1 2 6 4 5 2 3 3 1 3 3 7 3 1 4 7 5 4
14 13 8 7 5 5 5 7 7 5 3 1 2 1 2 2 2 2 5 6 4 3 4 2 4 2 1 0 2 6 3 5 4 3 1 4 4 5 5 6 2 3 13 12 11
13 9 7 6 5 5 7 7 4 4 2 1 1 2 3 2 3 5 5 7 4 3 5 6 2 4 4 3 4 10 7 4 4 3 5 2 1 3 6 6 6 2 11 9 18
11 8 5 4 4 5 6 4 2 2 1 2 2 2 2 2 4 4 3 3 5 4 3 1 2 5 8 3 2 3 3 4 4 3 5 5 5 2 6 10 5 8 9 14 19
9 6 3 3 4 5 3 3 3 1 1 2 2 2 0 1 3 4 3 2 1 2 3 3 3 5 3 3 2 0 2 2 0 1 1 4 4 2 4 5 3 10 12 18 18
10 9 6 5 5 5 4 3 1 1 2 1 4 1 6 2 2 3 3 2 3 4 3 2 3 1 5 1 4 2 3 1 3 3 5 5 5 5 11 7 5 10 19 19 19
4 3 4 4 4 3 3 4 3 2 2 2 2 2 2 2 1 1 2 2 2 3 5 1 3 3 2 2 1 4 1 4 3 3 4 4 6 5 10 7 4 10 13 12 17
2 3 2 2 2 4 3 1 2 1 4 3 4 2 2 1 3 2 3 1 3 2 2 1 3 4 6 4 4 2 2 3 4 3 1 3 8 3 10 13 3 14 21 21 19
3 4 5 3 3 1 1 3 3 2 3 2 2 2 1 3 1 2 3 2 4 2 5 4 1 2 3 4 3 2 2 4 5 3 6 4 6 5 9 15 21 22 28 22 30
2 2 5 7 6 6 4 2 2 2 2 3 2 2 2 2 2 4 3 3 4 2 5 3 3 5 6 3 2 4 4 4 5 3 3 11 16 23 16 13 26 30 26 30 33
3 3 2 1 5 5 3 3 3 1 1 1 2 0 3 4 3 4 3 3 2 4 3 4 5 4 5 7 4 7 12 9 10 7 8 13 8 17 13 16 24 25 32 33 33
4 3 5 4 3 2 3 3 5 2 3 1 2 3 2 3 5 6 5 4 5 3 5 1 2 3 5 4 2 8 12 11 16 15 16 22 26 22 28 21 23 27 32 33 39
7 6 2 2 2 3 2 3 4 6 1 1 3 4 2 3 3 2 4 2 4 8 6 5 4 2 5 5 7 9 9 13 5 5 9 10 15 7 6 11 19 26 32 36 37
Wind_Direction
207 200 208 217 229 232 230 205 178 172 174 175 179 189 195 196 180 172 172 199 266 237 122 102 174 148 154 127 112 110 68 212 246 172 265 340 2 325 331 301 320 311 335 355 346
213 210 214 222 227 227 220 187 169 168 173 176 181 190 191 180 167 164 211 230 246 243 224 170 215 249 226 167 168 92 116 225 221 226 289 320 310 325 337 324 328 340 349 350 358
211 213 214 223 219 214 190 171 165 168 170 176 184 188 186 174 161 149 320 215 235 227 248 235 246 320 280 236 211 169 202 225 283 286 327 322 311 359 319 322 325 329 331 332 338
209 208 207 211 197 181 168 163 162 164 167 176 183 187 176 167 136 184 179 204 213 180 179 256 262 356 7 268 343 316 266 268 300 307 319 299 304 310 284 293 335 343 9 17 30
181 177 187 177 164 163 160 158 158 160 167 172 179 177 159 169 107 143 132 89 323 208 322 28 54 12 320 322 331 210 307 315 299 300 302 296 281 263 295 44 74 80 71 66 65
137 153 154 154 156 155 157 156 156 160 165 167 174 163 158 127 113 100 94 68 102 98 43 55 63 332 288 279 263 315 300 301 310 323 5 331 329 242 29 29 62 67 69 67 65
137 142 143 146 147 152 154 155 155 161 161 160 159 155 138 145 78 149 128 81 75 85 284 327 319 293 287 316 326 316 336 334 8 346 43 337 11 72 2 54 80 78 76 71 67
132 134 135 139 144 148 152 153 155 157 151 145 151 143 96 144 116 133 273 308 335 43 37 16 344 343 278 314 5 31 45 20 313 4 8 39 268 351 360 95 80 77 74 71 63
135 134 135 140 147 150 150 151 150 149 135 128 129 138 112 98 44 39 38 331 303 298 286 355 4 48 46 64 10 6 276 329 324 61 355 43 356 1 73 91 80 73 69 67 65
142 142 145 146 146 147 148 142 137 133 134 133 132 125 123 106 75 74 31 355 18 320 146 56 47 60 36 65 241 277 331 303 258 321 5 80 67 29 71 88 84 77 71 66 61
150 151 150 148 148 149 145 134 129 115 89 83 108 95 120 114 85 52 14 357 30 32 59 32 53 270 231 197 201 230 234 251 254 257 72 99 97 53 66 84 82 76 71 68 62
150 148 146 143 142 140 150 172 148 136 104 92 84 69 106 105 107 26 355 33 38 20 44 25 247 234 191 130 208 261 275 279 295 327 77 130 94 73 46 79 89 85 76 69 60
148 147 145 146 142 144 162 156 137 128 94 83 79 65 90 82 62 23 14 12 56 39 35 155 237 116 146 47 18 287 232 240 230 330 69 126 154 122 36 91 94 91 88 79 57
149 145 146 148 146 143 139 149 150 120 81 307 48 69 69 111 65 36 16 29 37 84 347 233 317 129 66 46 155 288 199 293 301 35 239 150 284 215 183 97 62 74 73 82 65
147 147 150 152 154 146 142 152 170 110 41 177 97 91 96 73 128 22 20 31 88 317 77 263 23 20 320 215 223 247 317 283 285 211 348 259 142 270 151 111 338 359 345 347 309
147 149 155 149 151 148 143 140 134 48 249 50 78 11 101 53 58 111 17 37 60 62 16 296 304 45 266 342 36 298 347 37 54 97 332 237 156 204 180 171 166 20 3 2 338
161 161 150 148 140 139 145 142 51 131 23 250 102 53 76 2 45 55 50 18 43 82 12 341 0 338 16 358 18 32 36 339 347 359 232 212 269 274 165 164 149 316 357 5 8
160 166 161 163 158 150 152 58 158 142 208 359 49 88 131 14 47 54 73 45 16 42 87 99 244 4 337 63 346 19 121 149 277 271 289 303 245 262 197 162 130 358 346 349 341
150 146 152 164 166 159 162 81 210 216 338 18 45 122 253 23 114 92 64 119 10 336 116 52 273 318 45 356 96 45 39 182 151 30 21 265 282 347 172 195 269 323 338 336 337
129 101 95 118 143 147 79 160 163 342 358 212 183 20 186 260 168 99 183 246 158 58 49 152 329 352 298 56 50 106 160 44 13 294 286 286 275 244 202 214 277 321 341 356 1
139 108 92 101 133 102 126 189 154 79 142 52 165 121 131 173 103 67 114 333 34 55 94 104 113 296 353 54 125 351 356 65 127 147 216 296 261 227 176 178 264 320 333 341 341
163 70 40 174 52 55 120 97 138 22 70 71 102 95 105 66 64 85 204 325 149 128 102 20 132 253 237 285 260 254 175 129 134 228 174 148 270 200 161 177 238 324 336 328 328
126 117 34 172 127 67 133 72 81 55 38 47 101 62 101 130 114 128 137 137 154 124 163 168 233 340 322 352 2 138 146 125 105 92 209 143 261 168 217 266 327 327 323 317 320
137 57 49 62 77 123 133 130 96 50 77 70 113 88 87 114 63 165 150 207 188 151 128 124 178 203 202 191 130 254 213 178 133 140 206 230 278 273 285 309 317 313 314 315 315
82 93 86 8 18 91 91 137 123 187 72 79 42 195 160 165 174 186 142 140 206 190 122 138 227 223 254 245 229 241 245 214 218 200 208 265 245 273 288 300 301 306 317 315 312
87 124 99 99 105 92 8 183 159 174 152 204 188 173 152 184 198 202 149 184 196 162 158 185 257 36 299 348 308 272 262 226 237 240 250 260 273 269 283 292 304 315 315 312 312
78 95 118 27 71 85 216 156 195 148 171 207 211 128 225 238 193 191 203 179 190 167 181 163 140 89 267 346 318 286 249 205 205 196 215 232 250 297 292 292 303 310 311 308 307